User: anonymous   Login
Location: Axtheid
(49.6213°N, 11.8205°E)
Time: 02:58:01
(UTC+00:00)
Language:

Nadezhda 4 Rocket - Orbit

View from above orbital plane
View from above orbital plane
View from above satellite
View from above satellite

Ground track
Ground track

The orbit data is extracted from the following two-line orbital elements,

1 23180U 94041B   21102.43306100  .00000001  00000-0 -14163-4 0  9996
2 23180  82.9462 332.7779 0027647 272.7921 261.4556 13.77995990344796
Epoch (UTC): 12 April 2021 10:23:36
Eccentricity: 0.0027647
inclination: 82.9462°
perigee height: 950 km
apogee height: 991 km
right ascension of ascending node: 332.7779°
argument of perigee: 272.7921°
revolutions per day: 13.77995990
mean anomaly at epoch: 261.4556°
orbit number at epoch: 34479

The dashed part of the orbit path shows where the satellite is in the earth's shadow,  

DLR